Location: Radomski Observatory
(40.2854°N, 79.5145°W)
Time: 05:14:54
(UTC-04:00)

Amateur Radio Satellites - All Passes

Search period start: 19 August 2017 04:44
Search period end: 20 August 2017 04:44
Location: Radomski Observatory, 40.2854°N, 79.5145°W

Satellite Date Start Highest point End Downlink Frequencies (MHz)
Time Altitude Azimuth
Oscar 19 19 Aug 04:45:41 04:46:58 11° 302° (WNW) 04:48:17 437.125/150
KKS-1 19 Aug 04:46:57 04:50:55 32° 69° (ENE) 04:54:54 437.445
ITUPSAT 1 19 Aug 04:50:01 04:53:26 20° 266° (W) 04:56:52 437.325
AO-7 19 Aug 04:56:37 05:04:58 74° 106° (ESE) 05:13:14 .
STARS 19 Aug 05:31:30 05:35:36 39° 71° (ENE) 05:39:42 437.465
BEESAT 3 19 Aug 05:46:05 05:49:39 32° 115° (ESE) 05:53:17 437.485
YUBILEINY 19 Aug 05:50:11 05:56:42 24° 279° (W) 06:03:11 435.215
AO-85 19 Aug 05:55:29 05:58:45 25° 114° (ESE) 06:01:59 145.980
BEESAT 2 19 Aug 05:56:43 05:58:39 13° 109° (ESE) 06:00:35 435.950
ITAMSAT 1 19 Aug 05:57:49 06:02:13 29° 294° (WNW) 06:06:35 435.822/435.867
CUBESAT XI-V 19 Aug 06:12:24 06:15:15 16° 269° (W) 06:18:08 437.345
CUTE-I 19 Aug 06:14:29 06:15:45 11° 89° (E) 06:17:02 437.470
DOVE 4 19 Aug 06:23:27 06:27:52 45° 98° (E) 06:32:00 437.250
KKS-1 19 Aug 06:23:56 06:27:29 23° 265° (W) 06:31:02 437.445
XW-2F 19 Aug 06:26:47 06:28:38 13° 92° (E) 06:30:30 145.980 - 146.000
AO-7 19 Aug 06:50:26 06:56:58 27° 305° (NW) 07:03:28 .
HO-68 19 Aug 06:53:50 06:54:09 10° 86° (E) 06:54:29 435.675
KAITUO 1B 19 Aug 06:54:35 06:57:38 23° 95° (E) 07:00:40 145.475/437.950
LilacSat-2 19 Aug 07:08:28 07:12:15 49° 99° (E) 07:16:01 437.200
STARS 19 Aug 07:09:02 07:12:04 18° 266° (W) 07:15:07 437.465
XW-2D 19 Aug 07:15:19 07:19:07 59° 100° (E) 07:22:55 145.860 - 145.880
SO-50 19 Aug 07:18:29 07:19:10 10° 36° (NE) 07:19:50 436.795
BEESAT 3 19 Aug 07:24:00 07:27:16 23° 312° (NW) 07:30:34 437.485
PCSat 19 Aug 07:24:10 07:27:24 16° 42° (NE) 07:30:36 145.827
XW-2B 19 Aug 07:26:16 07:30:07 79° 101° (E) 07:33:58 145.730 - 145.750
STRAND 1 19 Aug 07:29:52 07:34:48 50° 71° (ENE) 07:39:44 437.568
NUDT-PHONESAT 19 Aug 07:29:59 07:33:42 63° 100° (E) 07:37:25 437.300
BEESAT 2 19 Aug 07:32:01 07:35:55 52° 305° (NW) 07:39:53 435.950
CUTE 1.7 + AOD 2 19 Aug 07:34:21 07:37:06 17° 92° (E) 07:39:51 437.475
AO-85 19 Aug 07:35:41 07:39:02 26° 311° (NW) 07:42:24 145.980
XW-2C 19 Aug 07:45:18 07:49:05 57° 286° (WNW) 07:52:51 145.795 - 145.815
CUTE-I 19 Aug 07:51:06 07:56:26 86° 285° (WNW) 08:01:44 437.470
XW-2F 19 Aug 07:59:20 08:02:57 40° 287° (WNW) 08:06:32 145.980 - 146.000
DOVE 4 19 Aug 08:02:10 08:05:07 17° 296° (WNW) 08:07:58 437.250
SEEDS 19 Aug 08:25:11 08:29:11 38° 98° (E) 08:33:07 437.485
KAITUO 1B 19 Aug 08:28:30 08:31:32 23° 290° (WNW) 08:34:34 145.475/437.950
HO-68 19 Aug 08:35:53 08:43:02 70° 104° (ESE) 08:50:10 435.675
LilacSat-2 19 Aug 08:44:31 08:46:05 12° 295° (WNW) 08:47:37 437.200
XW-2D 19 Aug 08:52:15 08:52:47 10° 296° (WNW) 08:53:18 145.860 - 145.880
NO-84 19 Aug 08:54:49 08:57:26 25° 35° (NE) 09:00:11 435.350 FM
SO-50 19 Aug 08:56:01 09:00:33 61° 55° (NE) 09:05:06 436.795
UWE-3 19 Aug 08:56:07 09:00:07 40° 98° (E) 09:04:11 435.000/436.395/437.385
FO-29 19 Aug 08:57:24 09:04:16 38° 67° (ENE) 09:10:35 435.910
CUBEBUG 2 19 Aug 08:59:02 09:03:14 77° 103° (ESE) 09:07:30 437.445
XW-2A 19 Aug 09:03:27 09:06:51 79° 282° (WNW) 09:10:15 145.665 - 145.685
PCSat 19 Aug 09:06:07 09:11:35 88° 62° (ENE) 09:17:00 145.827
CUTE 1.7 + AOD 2 19 Aug 09:09:03 09:13:06 41° 288° (WNW) 09:17:07 437.475
STRAND 1 19 Aug 09:10:41 09:14:14 19° 267° (W) 09:17:47 437.568
Oscar 11 19 Aug 09:14:46 09:18:15 23° 94° (E) 09:21:43 .
AAUSAT CUBESAT 2 19 Aug 09:16:38 09:20:49 67° 102° (ESE) 09:24:56 437.432
O/OREOS (USA 219) 19 Aug 09:26:22 09:28:34 14° 99° (E) 09:30:47 437.305
UNISAT 6 19 Aug 09:27:28 09:30:36 20° 67° (ENE) 09:33:42 437.425
CUTE-I 19 Aug 09:33:55 09:35:38 12° 302° (WNW) 09:37:21 437.470
ZACube-1 19 Aug 09:40:13 09:44:29 70° 102° (ESE) 09:48:49 437.345
SEEDS 19 Aug 10:01:37 10:04:33 18° 293° (WNW) 10:07:29 437.485
TIGRISAT 19 Aug 10:02:01 10:06:07 41° 72° (ENE) 10:10:10 435.000
AO-73 19 Aug 10:02:39 10:06:55 74° 284° (WNW) 10:11:15 145.935
PRISM 19 Aug 10:07:59 10:11:49 37° 71° (ENE) 10:15:41 437.425
RS-15 19 Aug 10:11:28 10:19:08 20° 97° (E) 10:26:50 29.354- 29.394
EO-88 19 Aug 10:17:23 10:19:20 14° 92° (E) 10:21:17 145.990 - 145.960
HO-68 19 Aug 10:24:45 10:30:06 24° 302° (WNW) 10:35:28 435.675
NO-84 19 Aug 10:31:58 10:34:49 30° 229° (SW) 10:37:53 435.350 FM
UWE-3 19 Aug 10:33:29 10:36:16 17° 293° (WNW) 10:39:06 435.000/436.395/437.385
SO-50 19 Aug 10:38:02 10:40:30 14° 251° (WSW) 10:42:59 436.795
DELFI C3 19 Aug 10:40:12 10:44:04 48° 99° (E) 10:47:54 145.870
Tancredo 1 19 Aug 10:40:23 10:43:18 83° 323° (NW) 10:46:13 437.200
FO-29 19 Aug 10:41:52 10:49:07 44° 262° (W) 10:55:52 435.910
Oscar 11 19 Aug 10:50:34 10:54:23 30° 290° (WNW) 10:58:10 .
Max Valier Satellite 19 Aug 10:51:16 10:54:52 49° 99° (E) 10:58:29 145.860
PCSat 19 Aug 10:52:27 10:54:08 11° 258° (WSW) 10:55:50 145.827
AAUSAT CUBESAT 2 19 Aug 10:54:36 10:55:40 11° 297° (WNW) 10:56:45 437.432
UNISAT 6 19 Aug 11:03:02 11:07:04 36° 262° (W) 11:11:03 437.425
O/OREOS (USA 219) 19 Aug 11:03:06 11:07:28 53° 295° (WNW) 11:11:52 437.305
M-CUBED/EXP-1 PRIME 19 Aug 11:14:21 11:18:37 46° 67° (ENE) 11:23:04 437.505
ISS 19 Aug 11:16:23 11:19:35 54° 139° (SE) 11:22:49 437.550
DUCHIFAT 1 19 Aug 11:17:15 11:18:57 12° 63° (ENE) 11:20:39 145.980
ZACube-1 19 Aug 11:19:06 11:20:12 11° 297° (WNW) 11:21:19 437.345
nSIGHT-1 19 Aug 11:27:10 11:30:25 76° 141° (SE) 11:33:42 .
AIST 2D 19 Aug 11:31:10 11:34:30 47° 75° (ENE) 11:37:52 435.315
ESTCUBE 1 19 Aug 11:35:18 11:36:59 12° 90° (E) 11:38:39 437.505/2401.250
TIGRISAT 19 Aug 11:40:14 11:42:58 16° 267° (W) 11:45:41 435.000
PRISM 19 Aug 11:44:27 11:47:13 17° 267° (W) 11:50:00 437.425
EO-88 19 Aug 11:49:45 11:53:07 35° 288° (WNW) 11:56:29 145.990 - 145.960
LO-87 19 Aug 11:52:37 11:55:35 25° 96° (E) 11:58:33 145.935 - 145.965
NANOSAT C BR1 19 Aug 11:58:38 12:02:33 39° 72° (ENE) 12:06:28 145.865
POLYITAN 1 19 Aug 12:01:23 12:05:25 47° 73° (ENE) 12:09:27 437.675
QB50P2 19 Aug 12:16:12 12:20:24 80° 76° (ENE) 12:24:37 145.880/145.840
DELFI C3 19 Aug 12:16:32 12:18:23 13° 295° (WNW) 12:20:14 145.870
Tancredo 1 19 Aug 12:17:05 12:18:54 15° 341° (NNW) 12:20:43 437.200
RS-15 19 Aug 12:17:25 12:29:37 81° 118° (ESE) 12:41:59 29.354- 29.394
EO-79 19 Aug 12:17:35 12:21:47 75° 75° (ENE) 12:25:59 145.935-145.965
Max Valier Satellite 19 Aug 12:27:15 12:28:15 11° 295° (WNW) 12:29:17 145.860
Oscar 19 19 Aug 12:42:39 12:45:54 17° 62° (ENE) 12:49:10 437.125/150
DUCHIFAT 1 19 Aug 12:50:00 12:54:06 58° 259° (W) 12:58:14 145.980
M-CUBED/EXP-1 PRIME 19 Aug 12:50:11 12:53:13 18° 263° (W) 12:56:21 437.505
ISS 19 Aug 12:53:34 12:56:15 23° 336° (NNW) 12:58:57 437.550
BUGSAT 1 19 Aug 12:57:41 13:01:35 43° 73° (ENE) 13:05:27 437.445
nSIGHT-1 19 Aug 13:04:38 13:07:07 19° 339° (NNW) 13:09:35 .
ESTCUBE 1 19 Aug 13:09:40 13:14:11 64° 286° (WNW) 13:18:39 437.505/2401.250
VELOX 1 19 Aug 13:24:35 13:28:40 35° 98° (E) 13:32:42 145.980
LO-87 19 Aug 13:26:24 13:28:50 18° 292° (WNW) 13:31:16 145.935 - 145.965
DX 1 19 Aug 13:34:00 13:35:44 12° 91° (E) 13:37:27 434.975-435.025
NANOSAT C BR1 19 Aug 13:35:45 13:38:24 16° 267° (W) 13:41:04 145.865
POLYITAN 1 19 Aug 13:39:19 13:41:27 14° 268° (W) 13:43:34 437.675
Gurwin Techsat 1B 19 Aug 13:39:34 13:44:26 38° 69° (ENE) 13:49:19 435.225
SPROUT 19 Aug 13:45:56 13:50:12 82° 103° (ESE) 13:54:26 437.525
BEESAT 3 19 Aug 14:03:29 14:06:23 19° 46° (NE) 14:09:14 437.485
AO-7 19 Aug 14:05:22 14:11:16 22° 52° (NE) 14:17:10 .
Oscar 19 19 Aug 14:19:38 14:24:42 61° 258° (WSW) 14:29:50 437.125/150
AO-85 19 Aug 14:25:57 14:29:26 23° 48° (NE) 14:33:05 145.980
50 SAT 19 Aug 14:31:13 14:34:37 89° 123° (ESE) 14:37:58 437.505
RS-15 19 Aug 14:32:23 14:43:30 37° 323° (NW) 14:54:39 29.354- 29.394
ISS 19 Aug 14:32:26 14:33:40 12° 356° (N) 14:34:54 437.550
BUGSAT 1 19 Aug 14:34:56 14:37:07 14° 267° (W) 14:39:19 437.445
nSIGHT-1 19 Aug 14:43:22 14:44:29 11° 359° (N) 14:45:36 .
UKube-1 19 Aug 14:49:57 14:54:13 57° 102° (ESE) 14:58:26 .
YUBILEINY 19 Aug 15:00:55 15:05:09 15° 75° (ENE) 15:09:23 435.215
VELOX 1 19 Aug 15:01:34 15:04:51 21° 294° (WNW) 15:08:07 145.980
DX 1 19 Aug 15:07:59 15:12:16 57° 287° (WNW) 15:16:30 434.975-435.025
ITUPSAT 1 19 Aug 15:14:32 15:15:36 11° 90° (E) 15:16:41 437.325
Gurwin Techsat 1B 19 Aug 15:20:00 15:24:26 27° 265° (W) 15:28:54 435.225
Tancredo 1 19 Aug 15:29:14 15:31:15 17° 21° (NNE) 15:33:16 437.200
ITAMSAT 1 19 Aug 15:35:28 15:40:28 51° 71° (ENE) 15:45:30 435.822/435.867
BEESAT 3 19 Aug 15:40:22 15:44:08 42° 244° (WSW) 15:47:50 437.485
BEESAT 2 19 Aug 15:49:54 15:53:59 75° 59° (ENE) 15:57:58 435.950
AO-7 19 Aug 15:54:35 16:02:59 89° 252° (WSW) 16:11:25 .
AO-85 19 Aug 16:05:50 16:09:56 40° 244° (WSW) 16:14:18 145.980
ISS 19 Aug 16:09:02 16:11:12 16° 17° (NNE) 16:13:23 437.550
MOZHAYETS 4 19 Aug 16:14:40 16:19:03 42° 99° (E) 16:23:26
BEESAT 19 Aug 16:16:01 16:20:39 50° 100° (E) 16:25:17 436.000
nSIGHT-1 19 Aug 16:19:31 16:21:52 18° 20° (NNE) 16:24:14 .
UKube-1 19 Aug 16:27:39 16:29:43 13° 297° (WNW) 16:31:48 .
CUBESAT XI-V 19 Aug 16:31:53 16:34:01 13° 90° (E) 16:36:08 437.345
ITUPSAT 1 19 Aug 16:49:09 16:53:56 76° 286° (WNW) 16:58:42 437.325
YUBILEINY 19 Aug 16:51:39 17:00:26 80° 95° (E) 17:09:14 435.215
RS-15 19 Aug 16:52:23 17:01:06 21° 357° (N) 17:09:42 29.354- 29.394
Tancredo 1 19 Aug 17:03:51 17:06:45 73° 220° (SW) 17:09:37 437.200
ITAMSAT 1 19 Aug 17:16:33 17:20:12 19° 267° (W) 17:23:51 435.822/435.867
DOVE 4 19 Aug 17:27:00 17:32:03 47° 72° (ENE) 17:37:02 437.250
CUTE-I 19 Aug 17:34:25 17:38:09 20° 63° (ENE) 17:41:54 437.470
KAITUO 1B 19 Aug 17:36:21 17:37:03 10° 64° (ENE) 17:37:43 145.475/437.950
ISS 19 Aug 17:44:53 17:48:09 70° 36° (NE) 17:51:24 437.550
LilacSat-2 19 Aug 17:50:14 17:53:12 22° 69° (ENE) 17:56:12 437.200
AO-7 19 Aug 17:51:38 17:56:43 17° 269° (W) 18:01:52 .
MOZHAYETS 4 19 Aug 17:52:37 17:55:53 19° 294° (WNW) 17:59:09
BEESAT 19 Aug 17:54:53 17:58:01 18° 296° (WNW) 18:01:08 436.000
nSIGHT-1 19 Aug 17:55:22 17:58:37 87° 218° (SW) 18:01:50 .
XW-2D 19 Aug 17:56:16 17:59:22 25° 70° (ENE) 18:02:31 145.860 - 145.880
XW-2B 19 Aug 18:06:58 18:10:20 32° 72° (ENE) 18:13:44 145.730 - 145.750
CUBESAT XI-V 19 Aug 18:07:06 18:11:47 62° 286° (WNW) 18:16:25 437.345
NUDT-PHONESAT 19 Aug 18:08:54 18:11:55 25° 70° (ENE) 18:14:58 437.300
KKS-1 19 Aug 18:14:05 18:18:30 68° 102° (ESE) 18:22:54 437.445
XW-2C 19 Aug 18:25:36 18:29:16 58° 76° (ENE) 18:32:59 145.795 - 145.815
CUTE 1.7 + AOD 2 19 Aug 18:27:55 18:29:23 12° 63° (ENE) 18:30:51 437.475
XW-2F 19 Aug 18:39:00 18:42:43 83° 76° (ENE) 18:46:29 145.980 - 146.000
YUBILEINY 19 Aug 18:51:53 18:58:15 22° 295° (WNW) 19:04:39 435.215
STARS 19 Aug 18:57:00 19:01:23 83° 102° (ESE) 19:05:44 437.465
HO-68 19 Aug 19:03:42 19:10:29 49° 67° (ENE) 19:17:18 435.675
DOVE 4 19 Aug 19:05:53 19:09:52 21° 267° (W) 19:13:51 437.250
KAITUO 1B 19 Aug 19:06:56 19:10:32 53° 260° (W) 19:14:12 145.475/437.950
RS-15 19 Aug 19:08:24 19:19:02 33° 32° (NNE) 19:29:12 29.354- 29.394
CUTE-I 19 Aug 19:12:29 19:17:45 56° 259° (W) 19:23:02 437.470
SEEDS 19 Aug 19:16:28 19:19:53 25° 69° (ENE) 19:23:19 437.485
ISS 19 Aug 19:22:52 19:24:13 12° 231° (SW) 19:25:33 437.550
LilacSat-2 19 Aug 19:24:20 19:27:22 23° 265° (W) 19:30:26 437.200
XW-2D 19 Aug 19:30:43 19:33:31 20° 266° (W) 19:36:21 145.860 - 145.880
XW-2A 19 Aug 19:34:17 19:37:07 27° 72° (ENE) 19:39:59 145.665 - 145.685
O/OREOS (USA 219) 19 Aug 19:34:36 19:38:26 26° 59° (ENE) 19:42:16 437.305
STRAND 1 19 Aug 19:41:53 19:45:14 17° 92° (E) 19:48:34 437.568
XW-2B 19 Aug 19:42:19 19:44:37 15° 267° (W) 19:46:55 145.730 - 145.750
NUDT-PHONESAT 19 Aug 19:43:05 19:45:46 19° 266° (W) 19:48:29 437.300
UWE-3 19 Aug 19:52:46 19:56:25 29° 70° (ENE) 20:00:02 435.000/436.395/437.385
KKS-1 19 Aug 19:52:49 19:54:27 12° 298° (WNW) 19:56:06 437.445
CUBEBUG 2 19 Aug 19:56:20 20:00:33 58° 74° (ENE) 20:04:42 437.445
CUTE 1.7 + AOD 2 19 Aug 20:00:28 20:04:39 64° 259° (W) 20:08:53 437.475
AAUSAT CUBESAT 2 19 Aug 20:05:53 20:09:45 39° 72° (ENE) 20:13:39 437.432
Oscar 11 19 Aug 20:09:39 20:12:27 17° 66° (ENE) 20:15:17 .
ZACube-1 19 Aug 20:35:24 20:39:23 47° 74° (ENE) 20:43:23 437.345
SEEDS 19 Aug 20:51:54 20:55:27 27° 265° (W) 20:59:03 437.485
HO-68 19 Aug 20:52:11 20:58:23 31° 264° (W) 21:04:37 435.675
AO-73 19 Aug 20:57:19 21:01:27 78° 76° (ENE) 21:05:35 145.935
XW-2A 19 Aug 21:08:03 21:09:54 14° 267° (W) 21:11:44 145.665 - 145.685
O/OREOS (USA 219) 19 Aug 21:13:51 21:17:49 30° 256° (WSW) 21:21:46 437.305
STRAND 1 19 Aug 21:19:45 21:24:43 53° 288° (WNW) 21:29:39 437.568
RS-15 19 Aug 21:21:12 21:33:19 90° 53° (NE) 21:44:45 29.354- 29.394
DELFI C3 19 Aug 21:25:04 21:28:23 26° 70° (ENE) 21:31:44 145.870
UWE-3 19 Aug 21:29:38 21:32:53 21° 266° (W) 21:36:07 435.000/436.395/437.385
Max Valier Satellite 19 Aug 21:30:07 21:32:52 20° 69° (ENE) 21:35:36 145.860
CUBEBUG 2 19 Aug 21:36:08 21:37:29 11° 269° (W) 21:38:51 437.445
AAUSAT CUBESAT 2 19 Aug 21:42:43 21:45:21 16° 268° (W) 21:48:00 437.432
Oscar 11 19 Aug 21:44:11 21:48:14 41° 262° (W) 21:52:20 .
FO-29 19 Aug 21:53:22 21:57:53 25° 93° (E) 22:02:09 435.910
PCSat 19 Aug 22:08:07 22:09:44 11° 102° (ESE) 22:11:20 145.827
ZACube-1 19 Aug 22:13:59 22:15:56 13° 269° (W) 22:17:52 437.345
EO-88 19 Aug 22:26:11 22:29:48 85° 76° (ENE) 22:33:27 145.990 - 145.960
LO-87 19 Aug 22:30:14 22:31:04 11° 65° (ENE) 22:31:53 145.935 - 145.965
ESTCUBE 1 19 Aug 22:35:10 22:36:31 11° 61° (ENE) 22:37:52 437.505/2401.250
UNISAT 6 19 Aug 22:54:29 22:58:37 44° 99° (E) 23:02:48 437.425
DELFI C3 19 Aug 22:59:54 23:03:05 23° 265° (W) 23:06:18 145.870
Max Valier Satellite 19 Aug 23:03:35 23:06:33 23° 265° (W) 23:09:32 145.860
SO-50 19 Aug 23:10:43 23:14:07 21° 111° (ESE) 23:17:30 436.795
PRISM 19 Aug 23:24:26 23:28:34 65° 101° (E) 23:32:37 437.425
TIGRISAT 19 Aug 23:29:53 23:34:11 79° 283° (WNW) 23:38:32 435.000
RS-15 19 Aug 23:35:46 23:43:59 23° 261° (W) 23:51:59 29.354- 29.394
FO-29 19 Aug 23:38:00 23:43:11 38° 292° (WNW) 23:47:59 435.910
PCSat 19 Aug 23:46:52 23:52:17 89° 293° (WNW) 23:57:45 145.827
LO-87 20 Aug 00:00:34 00:04:02 47° 260° (W) 00:07:32 145.935 - 145.965
QB50P2 20 Aug 00:03:07 00:05:08 13° 92° (E) 00:07:08 145.880/145.840
EO-79 20 Aug 00:04:34 00:06:16 12° 91° (E) 00:07:59 145.935-145.965
ESTCUBE 1 20 Aug 00:08:10 00:12:39 76° 258° (WSW) 00:17:12 437.505/2401.250
VELOX 1 20 Aug 00:21:10 00:25:03 30° 69° (ENE) 00:28:58 145.980
M-CUBED/EXP-1 PRIME 20 Aug 00:28:05 00:32:06 35° 101° (ESE) 00:35:49 437.505
AIST 2D 20 Aug 00:29:22 00:32:55 65° 101° (E) 00:36:27 435.315
DX 1 20 Aug 00:29:54 00:31:12 11° 61° (ENE) 00:32:30 434.975-435.025
UNISAT 6 20 Aug 00:32:17 00:34:59 16° 294° (WNW) 00:37:41 437.425
DUCHIFAT 1 20 Aug 00:34:51 00:38:05 21° 94° (E) 00:41:19 145.980
SPROUT 20 Aug 00:38:18 00:42:28 56° 74° (ENE) 00:46:39 437.525
SO-50 20 Aug 00:50:01 00:54:17 41° 308° (NW) 00:58:34 436.795
50 SAT 20 Aug 01:01:44 01:04:39 26° 71° (ENE) 01:07:33 437.505
PRISM 20 Aug 01:02:12 01:03:16 11° 298° (WNW) 01:04:19 437.425
NANOSAT C BR1 20 Aug 01:18:26 01:22:38 80° 101° (ESE) 01:26:50 145.865
POLYITAN 1 20 Aug 01:21:55 01:26:08 83° 284° (WNW) 01:30:21 437.675
PCSat 20 Aug 01:33:13 01:36:27 16° 318° (NW) 01:39:44 145.827
QB50P2 20 Aug 01:37:06 01:41:11 49° 287° (WNW) 01:45:15 145.880/145.840
EO-79 20 Aug 01:38:14 01:42:20 53° 286° (WNW) 01:46:25 145.935-145.965
UKube-1 20 Aug 01:43:34 01:47:41 44° 72° (ENE) 01:51:49 .
NO-84 20 Aug 01:48:24 01:51:00 29° 131° (SE) 01:53:32 435.350 FM
Gurwin Techsat 1B 20 Aug 01:57:30 02:00:28 15° 91° (E) 02:03:26 435.225
VELOX 1 20 Aug 01:57:51 02:01:29 24° 265° (W) 02:05:07 145.980
DX 1 20 Aug 02:02:24 02:06:46 73° 258° (WSW) 02:11:10 434.975-435.025
M-CUBED/EXP-1 PRIME 20 Aug 02:02:52 02:06:14 22° 299° (WNW) 02:09:26 437.505
DUCHIFAT 1 20 Aug 02:10:07 02:13:45 30° 290° (WNW) 02:17:24 145.980
BUGSAT 1 20 Aug 02:14:39 02:18:41 83° 103° (ESE) 02:22:43 437.445
SPROUT 20 Aug 02:17:06 02:18:41 12° 269° (W) 02:20:18 437.525
ITUPSAT 1 20 Aug 02:20:22 02:22:39 13° 61° (ENE) 02:24:55 437.325
Oscar 19 20 Aug 02:31:36 02:36:40 49° 100° (E) 02:41:41 437.125/150
50 SAT 20 Aug 02:35:10 02:37:19 16° 266° (W) 02:39:29 437.505
YUBILEINY 20 Aug 03:02:52 03:10:53 39° 73° (ENE) 03:18:48 435.215
MOZHAYETS 4 20 Aug 03:15:55 03:20:06 37° 71° (ENE) 03:24:18
UKube-1 20 Aug 03:21:18 03:23:54 16° 267° (W) 03:26:31 .
BEESAT 20 Aug 03:21:39 03:26:17 55° 72° (ENE) 03:30:56 436.000
NO-84 20 Aug 03:26:10 03:28:23 20° 328° (NNW) 03:30:37 435.350 FM
CUBESAT XI-V 20 Aug 03:35:12 03:37:16 13° 62° (ENE) 03:39:21 437.345
Gurwin Techsat 1B 20 Aug 03:35:35 03:40:51 66° 287° (WNW) 03:46:06 435.225
ITAMSAT 1 20 Aug 03:49:48 03:53:17 18° 93° (E) 03:56:45 435.822/435.867
ITUPSAT 1 20 Aug 03:55:09 03:59:52 69° 258° (WSW) 04:04:38 437.325
AO-7 20 Aug 03:57:29 04:04:40 31° 96° (E) 04:11:48 .
Oscar 19 20 Aug 04:11:47 04:15:36 21° 296° (WNW) 04:19:24 437.125/150
